Lid_Strength_Index
8 10 11 10 9 9 10 10 10 8 7 7 7 7 6 5 5 6 5 5 4 4 3 2 2 1 0 -0 -0 0 0 -0 0 0 1 1 1 1 0 -0 -1 -1 -1 -1
10 12 9 9 10 10 10 11 10 8 7 7 8 8 6 5 5 5 5 5 4 4 4 3 2 1 1 1 0 0 0 -0 -0 0 0 0 0 0 0 -0 -0 -1 -0 -0
11 10 8 10 10 11 11 11 11 10 8 7 8 9 8 5 5 4 4 4 5 4 4 3 3 2 1 1 1 1 -0 -0 -0 -0 0 0 0 1 1 1 1 0 -0 -0
9 7 8 8 9 9 12 9 10 10 10 12 7 13 9 7 6 5 5 4 5 4 3 4 3 2 1 1 0 0 -0 -0 -0 -0 0 1 2 2 1 1 1 1 -0 -0
8 7 8 9 8 7 9 7 8 9 10 10 10 11 10 7 8 6 5 4 4 3 3 4 3 2 1 0 1 0 -0 -0 -0 -0 0 1 1 1 1 1 1 1 0 0
7 5 6 7 6 6 6 7 8 8 9 13 11 11 11 9 8 7 5 4 4 4 3 3 2 1 1 1 1 0 0 0 0 1 1 1 1 1 2 2 2 2 1 0
8 8 7 7 9 6 7 9 13 14 14 15 11 11 10 7 7 7 6 5 4 3 3 3 2 2 1 1 1 1 1 1 1 1 1 1 1 1 1 1 1 1 1 1
13 14 9 8 10 9 9 10 13 17 15 14 10 12 11 7 6 5 5 4 4 3 3 3 2 2 2 1 1 2 2 2 1 1 1 1 1 1 1 1 1 1 1 1
13 12 7 8 7 7 10 12 8 12 12 14 11 9 8 7 6 6 5 5 4 4 3 3 3 2 2 2 2 2 2 2 1 1 1 1 1 1 1 0 0 0 -0 0
9 15 8 9 7 7 8 7 12 11 18 17 12 11 12 9 8 6 6 5 4 4 4 4 3 3 2 2 2 1 2 2 1 1 1 1 1 1 0 0 0 0 -0 -0
7 10 11 8 10 11 9 10 11 11 12 16 15 12 7 7 6 6 6 5 4 4 5 4 4 4 3 2 2 2 2 2 2 1 1 1 1 1 0 0 0 0 -0 -0
7 10 13 11 7 6 8 10 13 16 15 11 13 12 6 6 5 6 5 5 4 4 5 5 5 4 3 3 2 2 2 2 1 1 1 1 1 1 1 1 0 -0 0 -0
8 11 14 12 10 8 9 9 8 10 10 15 14 12 6 5 6 5 5 5 4 4 4 5 5 4 3 3 3 2 2 2 1 1 1 1 1 1 1 1 0 -0 0 -0
7 10 13 15 12 9 11 10 9 9 13 12 11 10 8 6 6 5 5 5 5 4 4 5 5 5 3 3 3 2 2 1 1 1 1 1 1 1 1 0 0 0 -0 0
9 13 10 10 9 9 9 10 9 10 9 12 10 10 8 6 6 5 5 5 5 5 4 5 5 5 4 3 3 2 2 1 1 1 1 1 1 0 0 0 0 -0 -0 0
8 13 10 12 9 9 10 9 9 9 9 9 9 9 7 6 6 6 6 6 6 6 5 5 5 5 4 3 3 2 2 1 1 1 1 1 1 1 1 1 0 0 0 0
11 12 12 14 10 10 13 9 9 9 8 8 10 8 7 7 7 6 6 6 6 5 5 5 5 4 4 3 2 2 2 1 1 1 1 1 1 1 1 1 1 1 0 0
12 12 11 14 12 18 9 7 8 9 8 8 8 7 6 7 6 6 6 5 5 5 4 4 4 4 3 2 2 1 1 1 1 2 1 1 1 1 1 1 1 0 1 0
9 12 14 16 16 12 10 9 10 12 12 8 8 6 6 5 6 6 6 5 4 4 3 4 3 3 2 2 2 2 1 1 2 2 1 1 1 1 1 1 1 1 1 1
10 10 14 14 18 19 12 9 7 9 15 8 7 8 6 6 10 8 5 4 4 3 3 4 3 2 2 2 1 2 2 2 2 2 2 1 1 1 1 1 1 0 0 1
14 13 15 15 17 13 9 8 8 16 13 8 7 7 7 7 6 5 4 4 3 4 3 3 3 3 2 2 1 2 2 2 1 1 1 1 1 1 0 0 0 0 0 1
15 16 15 15 17 18 8 10 13 10 7 8 7 7 7 6 5 4 4 4 4 4 3 3 3 3 2 1 1 2 2 1 1 1 1 1 1 1 1 1 1 0 1 1
15 12 14 14 14 8 7 9 8 7 9 7 7 6 6 5 5 4 4 4 4 4 3 3 3 3 2 1 1 2 1 1 1 1 1 1 1 1 0 1 1 1 1 2
9 7 12 12 9 9 8 7 6 6 7 6 5 5 5 5 5 5 4 4 4 3 3 3 3 3 3 1 1 1 1 1 1 1 1 1 1 1 1 1 1 1 1 2
9 8 11 11 9 8 8 7 7 6 5 6 5 5 5 5 5 5 5 4 4 3 3 3 3 3 2 1 1 1 1 1 1 1 1 1 1 1 1 1 1 1 0 1
6 9 12 13 8 9 9 7 6 7 6 5 5 5 5 4 5 5 4 4 3 3 3 3 2 2 2 2 1 1 1 1 1 2 2 2 1 1 1 1 2 12 11 10